Location: Bratislava
(48.1500°N, 17.1170°E)
Time: 12:20:44
(UTC+01:00)

OTV 5 (USA 277) - Visible Passes

Search period start: 16 November 2018 00:00
Search period end: 26 November 2018 00:00
Orbit: 339 x 348 km, 54.5° (Epoch: 14 November)

Date Brightness Start Highest point End Pass type
(mag) Time Alt. Az. Time Alt. Az. Time Alt. Az.
16 Nov ? 17:14:30 10° WSW 17:15:12 11° SW 17:15:56 10° SW visible
24 Nov ? 06:07:41 10° SSE 06:09:15 14° SE 06:10:49 10° E visible
25 Nov ? 06:29:49 10° SSW 06:32:30 36° SE 06:35:10 10° ENE visible
